| time (UTC) | temp C | wind direction | speed KPH | gust KPH | rain 1hr cm | rain 24hr cm | rain mn cm | humidity % | barometer mb |
| 20260502194153 | 15 | 0 | 1.6 | 3.2 | 0.00 | 0.00 | 0.00 | 45 | 1011.5 |
| 20260502192653 | 14 | 0 | 0.0 | 0.0 | 0.00 | 0.00 | 0.00 | 48 | 1011.8 |
| 20260502191153 | 15 | 0 | 1.6 | 6.4 | 0.00 | 0.00 | 0.00 | 42 | 1012.0 |
| 20260502185653 | 15 | 0 | 0.0 | 3.2 | 0.00 | 0.00 | 0.00 | 50 | 1011.9 |
| 20260502184153 | 15 | 0 | 0.0 | 3.2 | 0.00 | 0.00 | 0.00 | 46 | 1011.9 |
| 20260502182653 | 15 | 0 | 0.0 | 3.2 | 0.00 | 0.00 | 0.00 | 50 | 1012.4 |
| 20260502181153 | 14 | 0 | 1.6 | 9.7 | 0.00 | 0.00 | 0.00 | 52 | 1012.5 |
| 20260502164153 | 13 | 290 | 0.0 | 0.0 | 0.00 | 0.00 | 0.00 | 58 | 1013.5 |
| 20260502162653 | 13 | 0 | 1.6 | 8.0 | 0.00 | 0.00 | 0.00 | 58 | 1013.6 |
| 20260502161153 | 13 | 326 | 0.0 | 0.0 | 0.00 | 0.00 | 0.00 | 58 | 1013.7 |
| 20260502151153 | 12 | 306 | 0.0 | 0.0 | 0.00 | 0.00 | 0.00 | 64 | 1013.8 |
| 20260502122653 | 11 | 0 | 0.0 | 4.8 | 0.00 | 0.00 | 0.00 | 75 | 1013.2 |
| 20260502121153 | 11 | 202 | 0.0 | 3.2 | 0.00 | 0.00 | 0.00 | 77 | 1013.1 |
| 20260502115653 | 11 | 290 | 0.0 | 4.8 | 0.00 | 0.00 | 0.00 | 79 | 1013.1 |
| 20260502114153 | 11 | 0 | 0.0 | 0.0 | 0.00 | 0.00 | 0.00 | 81 | 1013.2 |
| 20260502112653 | 11 | 0 | 0.0 | 0.0 | 0.00 | 0.00 | 0.00 | 82 | 1013.3 |
| 20260502111153 | 11 | 0 | 0.0 | 0.0 | 0.00 | 0.00 | 0.00 | 83 | 1013.4 |
| 20260502105653 | 11 | 0 | 0.0 | 0.0 | 0.00 | 0.00 | 0.00 | 83 | 1013.1 |
| 20260502104153 | 11 | 0 | 0.0 | 0.0 | 0.00 | 0.00 | 0.00 | 84 | 1012.9 |
| 20260502102653 | 10 | 0 | 0.0 | 0.0 | 0.00 | 0.00 | 0.00 | 86 | 1012.5 |
| 20260502101153 | 10 | 0 | 0.0 | 0.0 | 0.00 | 0.00 | 0.00 | 88 | 1012.6 |
| 20260502091153 | 10 | 0 | 0.0 | 0.0 | 0.00 | 0.00 | 0.00 | 89 | 1012.2 |
| 20260502071154 | 11 | 180 | 0.0 | 0.0 | 0.00 | 0.00 | 0.00 | 88 | 1012.1 |
| 20260502065654 | 11 | 180 | 0.0 | 0.0 | 0.00 | 0.00 | 0.00 | 88 | 1011.5 |
| 20260502064154 | 10 | 180 | 0.0 | 0.0 | 0.00 | 0.00 | 0.00 | 87 | 1011.4 |
| 20260502062654 | 10 | 180 | 0.0 | 0.0 | 0.00 | 0.00 | 0.00 | 87 | 1011.9 |
| 20260502061154 | 11 | 0 | 0.0 | 0.0 | 0.00 | 0.00 | 0.00 | 85 | 1012.1 |
| 20260502055654 | 11 | 181 | 0.0 | 0.0 | 0.00 | 0.00 | 0.00 | 84 | 1012.4 |
| 20260502054154 | 11 | 181 | 0.0 | 0.0 | 0.00 | 0.00 | 0.00 | 84 | 1012.5 |
| 20260502052654 | 11 | 0 | 0.0 | 0.0 | 0.00 | 0.00 | 0.00 | 83 | 1012.5 |
| 20260502051154 | 12 | 0 | 0.0 | 0.0 | 0.00 | 0.00 | 0.00 | 82 | 1012.7 |
| 20260502045654 | 12 | 0 | 0.0 | 0.0 | 0.00 | 0.00 | 0.00 | 81 | 1012.8 |
| 20260502044154 | 12 | 0 | 0.0 | 0.0 | 0.00 | 0.00 | 0.00 | 81 | 1013.0 |
| 20260502042654 | 12 | 0 | 0.0 | 0.0 | 0.00 | 0.00 | 0.00 | 80 | 1013.0 |
| 20260502041154 | 12 | 186 | 0.0 | 1.6 | 0.00 | 0.00 | 0.00 | 80 | 1013.0 |
| 20260502035654 | 12 | 0 | 0.0 | 0.0 | 0.00 | 0.00 | 0.00 | 79 | 1013.0 |
| 20260502034154 | 13 | 0 | 0.0 | 4.8 | 0.00 | 0.00 | 0.00 | 79 | 1013.3 |
| 20260502032654 | 13 | 0 | 0.0 | 4.8 | 0.00 | 0.00 | 0.00 | 78 | 1012.7 |
| 20260502031154 | 13 | 137 | 0.0 | 3.2 | 0.00 | 0.00 | 0.00 | 77 | 1012.4 |
| 20260502025654 | 13 | 36 | 0.0 | 6.4 | 0.00 | 0.00 | 0.00 | 76 | 1012.3 |
| 20260502024154 | 13 | 168 | 0.0 | 0.0 | 0.00 | 0.00 | 0.00 | 75 | 1012.4 |
| 20260502022654 | 13 | 144 | 1.6 | 4.8 | 0.00 | 0.00 | 0.00 | 74 | 1012.6 |
| 20260502021154 | 13 | 0 | 0.0 | 8.0 | 0.00 | 0.00 | 0.00 | 74 | 1012.6 |
| 20260502015654 | 13 | 193 | 0.0 | 3.2 | 0.00 | 0.00 | 0.00 | 75 | 1012.6 |
| 20260502014154 | 13 | 196 | 0.0 | 0.0 | 0.00 | 0.00 | 0.00 | 75 | 1012.4 |
| 20260502012654 | 12 | 0 | 0.0 | 0.0 | 0.00 | 0.00 | 0.00 | 75 | 1012.4 |
| 20260502011154 | 13 | 0 | 0.0 | 0.0 | 0.00 | 0.00 | 0.00 | 75 | 1012.3 |
| 20260502005654 | 13 | 0 | 0.0 | 0.0 | 0.00 | 0.00 | 0.00 | 74 | 1011.9 |
| 20260502004154 | 13 | 0 | 0.0 | 0.0 | 0.00 | 0.00 | 0.00 | 73 | 1011.8 |
| 20260502002654 | 13 | 0 | 0.0 | 0.0 | 0.00 | 0.00 | 0.00 | 71 | 1011.7 |
| 20260502001154 | 14 | 209 | 0.0 | 0.0 | 0.00 | 0.00 | 0.00 | 70 | 1011.7 |
| 20260501235654 | 15 | 0 | 0.0 | 3.2 | 0.00 | 0.00 | 0.00 | 68 | 1011.7 |
| 20260501234154 | 15 | 133 | 0.0 | 0.0 | 0.00 | 0.00 | 0.00 | 66 | 1011.7 |
| 20260501232654 | 16 | 0 | 0.0 | 3.2 | 0.00 | 0.00 | 0.00 | 64 | 1011.8 |
| 20260501231154 | 16 | 0 | 0.0 | 0.0 | 0.00 | 0.00 | 0.00 | 61 | 1011.7 |
| 20260501225654 | 18 | 0 | 0.0 | 6.4 | 0.00 | 0.00 | 0.00 | 53 | 1011.6 |
| 20260501224154 | 18 | 89 | 0.0 | 3.2 | 0.00 | 0.00 | 0.00 | 49 | 1011.6 |
| 20260501222654 | 20 | 143 | 0.0 | 0.0 | 0.00 | 0.00 | 0.00 | 45 | 1011.6 |
| 20260501221154 | 20 | 209 | 0.0 | 4.8 | 0.00 | 0.00 | 0.00 | 40 | 1011.6 |
| 20260501215654 | 20 | 175 | 0.0 | 0.0 | 0.00 | 0.00 | 0.00 | 38 | 1011.5 |
| 20260501214154 | 20 | 157 | 1.6 | 9.7 | 0.00 | 0.00 | 0.00 | 40 | 1011.6 |
| 20260501212654 | 20 | 253 | 1.6 | 6.4 | 0.00 | 0.00 | 0.00 | 44 | 1011.6 |
| 20260501211154 | 19 | 245 | 1.6 | 4.8 | 0.00 | 0.00 | 0.00 | 42 | 1011.7 |
| 20260501205654 | 19 | 195 | 1.6 | 6.4 | 0.00 | 0.00 | 0.00 | 41 | 1012.0 |
| 20260501204154 | 19 | 150 | 1.6 | 9.7 | 0.00 | 0.00 | 0.00 | 40 | 1012.1 |
| 20260501202654 | 19 | 175 | 3.2 | 12.9 | 0.00 | 0.00 | 0.00 | 39 | 1012.2 |
| 20260501201154 | 19 | 110 | 3.2 | 9.7 | 0.00 | 0.00 | 0.00 | 40 | 1012.4 |
| 20260501195654 | 19 | 205 | 1.6 | 6.4 | 0.00 | 0.00 | 0.00 | 44 | 1012.7 |